Regional Weather Roundup
Issued by NWS

Home | Current Version | Previous Version | Graphics & Text | Print | Product List | Glossary On
Versions: 1 2 3 4 5 6 7 8 9 10 11 12 13 14 15 16 17 18 19 20 21 22 23 24 25 26 27 28 29 30 31 32 33 34 35 36 37 38 39 40 41 42 43 44 45 46 47 48 49 50
000
ASUS43 KDTX 071401
RWRMI
MICHIGAN HOURLY REGIONAL WEATHER ROUNDUP
NATIONAL WEATHER SERVICE DETROIT/PONTIAC MI
1000 AM EDT TUE JUL 07 2015

NOTE: "FAIR" INDICATES FEW OR NO CLOUDS BELOW 12,000 FEET WITH NO
SIGNIFICANT WEATHER AND/OR OBSTRUCTION TO VISIBILITY.

MIZ047>049-052>055-059>063-066>070-074>076-081>083-071500-
SOUTHEAST LOWER MICHIGAN

CITY           SKY/WX    TMP DP  RH WIND       PRES   REMARKS
ADRIAN         CLOUDY    75  72  90 W10       29.88S
ALMA           RAIN      60  59  96 N13G18    29.88R
ANN ARBOR      HVY RAIN  73  72  96 SW9       29.86F VSB 1
BAD AXE        CLOUDY    73  68  83 SW9       29.82S
CARO           LGT RAIN  71  70  98 S5        29.83R
DETROIT CITY   PTSUNNY   78  71  79 SW16      29.85F
DETROIT        CLOUDY    77  72  84 S12       29.86F
FLINT          LGT RAIN  73  69  87 SW6       29.84F FOG
GROSSE ILE     CLOUDY    77  72  83 SW8G16    29.85F
HILLSDALE      RAIN      72  72 100 SW3       29.88F
HOWELL         RAIN      71  69  95 SW6       29.85F

CITY           SKY/WX    TMP DP  RH WIND       PRES   REMARKS
JACKSON        LGT RAIN  72  70  93 SW7       29.86F
LAMBERTVILLE   CLOUDY    79  72  77 SW6       29.88F
LANSING        RAIN      71  69  93 SW8       29.85S FOG
LAPEER         HVY RAIN  72  69  92 SW5       29.85R
MASON          LGT RAIN  68  67  96 CALM      29.85F
MONROE         CLOUDY    78  73  84 SW7       29.86F
MT. CLEMENS    LGT RAIN  77  73  87 SW10      29.83F FOG
PONTIAC        LGT RAIN  73  71  93 SW10G21   29.85S FOG
PORT HOPE        N/A     74  69  85 VRB6      29.80R
PORT HURON     LGT RAIN  73  72  94 S6        29.85S
TRI CITIES     RAIN      64  60  87 NW14      29.85R FOG
MIDLAND        RAIN      61  59  93 NW7       29.86R
TROY           CLOUDY    77  72  84 SW10G18   29.87S
SAGINAW HB     HVY RAIN  70  70 100 NW16      29.83R
$$
MIZ043>046-050>051-056>058-064>065-071>073-077>080-071500-
SOUTHWEST LOWER MICHIGAN

CITY           SKY/WX    TMP DP  RH WIND       PRES   REMARKS
BATTLE CREEK   RAIN      72  70  93 SW10      29.86F FOG
BENTON HARBOR  LGT RAIN  59  58  96 VRB6      29.92R FOG
BIG RAPIDS     CLOUDY    57  53  84 N14       29.91S
COLDWATER      LGT RAIN  70  70  98 SW6       29.88S
FREMONT        CLOUDY    59  53  80 N13       29.93R
HOLLAND        CLOUDY    60  56  86 N10G20    29.93R
GRAND RAPIDS   LGT RAIN  60  58  92 N15G23    29.90R FOG
IONIA          RAIN      61  60  97 N15       29.87R
KALAMAZOO      LGT RAIN  69  66  90 W9        29.87R FOG
LUDINGTON      CLOUDY    58  52  79 N16G24    29.96R
MARSHALL       RAIN      72  70  94 SW7       29.86S
MOUNT PLEASANT DRIZZLE   59  57  94 N8        29.88R
MUSKEGON       CLOUDY    61  52  72 N13       29.93R
SOUTH HAVEN    RAIN      59  58  94 N13G20    29.91R
$$
MIZ016>042-071500-
NORTHERN LOWER MICHIGAN

CITY           SKY/WX    TMP DP  RH WIND       PRES   REMARKS
ALPENA         LGT RAIN  60  58  92 NW9       29.86R
BEAVER ISLAND  SUNNY     58  50  75 NW13      29.95R
BELLAIRE       CLOUDY    57  53  85 N7        29.94R
CADILLAC       CLOUDY    56  52  88 NW9G16    29.92R
CHARLEVOIX     SUNNY     58  52  79 N9G16     29.97R
FRANKFORT      SUNNY     60  48  64 N10G21    29.97R
GAYLORD        CLOUDY    55  55 100 W8        29.91R
GRAYLING       CLOUDY    56  54  91 NW15      29.91R
HARBOR SPRINGS CLOUDY    57  53  85 CALM      29.92R
HOUGHTON LAKE  CLOUDY    57  55  93 NW13      29.90R
MANISTEE       CLOUDY    55  46  71 N13G20    29.97S
OSCODA         RAIN      60  59  97 NW10      29.83S
PELLSTON       CLOUDY    57  52  83 NW13      29.92R
ROGERS CITY    CLOUDY    58  57  95 W9        29.87R
TRAVERSE CITY  PTSUNNY   58  51  78 NW14      29.93R
$$
MIZ007>008-015-071500-
EASTERN UPPER MICHIGAN

CITY           SKY/WX    TMP DP  RH WIND       PRES   REMARKS
KINROSS        PTSUNNY   57  54  88 NW18G28   29.88R
MACKINAC ISLAN CLOUDY    57  54  92 NW12G17   29.90R
NEWBERRY       MOSUNNY   56  49  77 NW15G23   29.95R
S. S. MARIE    PTSUNNY   58  52  80 NW13      29.88R
$$
MIZ004>006-011>014-085-071500-
CENTRAL UPPER MICHIGAN

CITY           SKY/WX    TMP DP  RH WIND       PRES   REMARKS
MANISTIQUE     MOSUNNY   59  49  68 NW15      29.96R
ESCANABA       CLOUDY    57  48  72 N12G20    30.01R
MENOMINEE      SUNNY     59  48  67 N14       30.01S
SAWYER-GWINN   CLOUDY    54  46  76 N14       30.03R
$$
MIZ001>003-009>011-084-071500-
WESTERN UPPER MICHIGAN

CITY           SKY/WX    TMP DP  RH WIND       PRES   REMARKS
IRON MOUNTAIN  PTSUNNY   56  46  69 N13       30.03R
HOUGHTON       CLOUDY    55  47  74 NW14G22   30.06R
COPPER HARBOR    N/A     51  44  77 N16       30.04R
IRONWOOD       PTSUNNY   55  48  76 N9        30.09S
$$

ABBREVIATIONS USED IN REMARKS
   TC - TEMPERATURE IN CELSIUS
  WCI - WIND CHILL INDEX
   HX - HEAT INDEX
  VSB - VISIBILITY



USA.gov is the U.S. government's official web portal to all federal, state and local government web resources and services.